| time (UTC) | temp F | wind direction | speed MPH | gust MPH | rain 1hr in | rain 24hr in | rain mn in | humidity % | barometer mb |
| 20260507031017 | 41 | 323 | 0.0 | 0.0 | 0.00 | 0.89 | 0.81 | 96 | 1003.3 |
| 20260507030516 | 41 | 323 | 0.0 | 0.0 | 0.00 | 0.90 | 0.81 | 96 | 1003.3 |
| 20260507030017 | 42 | 323 | 0.0 | 0.0 | 0.00 | 0.90 | 0.81 | 96 | 1003.3 |
| 20260507025522 | 42 | 323 | 0.0 | 0.0 | 0.00 | 0.90 | 0.81 | 97 | 1003.3 |
| 20260507025015 | 42 | 323 | 0.0 | 0.0 | 0.00 | 0.90 | 0.81 | 96 | 1003.3 |
| 20260507024515 | 42 | 323 | 0.0 | 0.0 | 0.00 | 0.90 | 0.81 | 97 | 1003.3 |
| 20260507024019 | 42 | 323 | 0.0 | 0.0 | 0.00 | 0.90 | 0.81 | 97 | 1003.2 |
| 20260507023514 | 42 | 323 | 0.0 | 0.0 | 0.00 | 0.90 | 0.81 | 97 | 1003.3 |
| 20260507023015 | 42 | 323 | 0.0 | 2.0 | 0.00 | 0.90 | 0.81 | 97 | 1003.3 |
| 20260507022514 | 42 | 323 | 0.0 | 2.0 | 0.00 | 0.90 | 0.81 | 97 | 1003.2 |
| 20260507022014 | 42 | 323 | 0.0 | 2.0 | 0.00 | 0.90 | 0.81 | 97 | 1003.1 |
| 20260507021514 | 42 | 323 | 0.0 | 2.0 | 0.00 | 0.90 | 0.81 | 97 | 1003.2 |
| 20260507021013 | 42 | 323 | 0.0 | 1.0 | 0.00 | 0.90 | 0.81 | 97 | 1003.2 |
| 20260507020514 | 42 | 323 | 0.0 | 1.0 | 0.00 | 0.94 | 0.81 | 97 | 1003.0 |
| 20260507020014 | 42 | 323 | 0.0 | 1.0 | 0.00 | 0.94 | 0.81 | 97 | 1002.9 |
| 20260507015513 | 42 | 323 | 0.0 | 1.0 | 0.00 | 0.94 | 0.81 | 97 | 1003.2 |
| 20260507015013 | 42 | 323 | 0.0 | 1.0 | 0.00 | 0.94 | 0.81 | 97 | 1003.3 |
| 20260507014524 | 42 | 323 | 0.0 | 2.0 | 0.00 | 0.94 | 0.81 | 97 | 1003.5 |
| 20260507014012 | 42 | 323 | 1.0 | 2.0 | 0.00 | 0.94 | 0.81 | 97 | 1003.4 |
| 20260507013512 | 42 | 333 | 0.0 | 1.0 | 0.00 | 0.94 | 0.81 | 97 | 1003.0 |
| 20260507013030 | 42 | 333 | 0.0 | 1.0 | 0.00 | 0.94 | 0.81 | 97 | 1003.2 |
| 20260507012515 | 42 | 317 | 0.0 | 2.0 | 0.00 | 0.94 | 0.81 | 97 | 1003.4 |
| 20260507012016 | 42 | 317 | 0.0 | 2.0 | 0.00 | 0.94 | 0.81 | 97 | 1003.4 |
| 20260507011526 | 42 | 317 | 1.0 | 2.0 | 0.00 | 0.94 | 0.81 | 97 | 1003.5 |
| 20260507011011 | 42 | 317 | 0.0 | 2.0 | 0.00 | 0.94 | 0.81 | 97 | 1003.3 |
| 20260507010511 | 42 | 317 | 0.0 | 2.0 | 0.01 | 0.94 | 0.81 | 96 | 1003.2 |
| 20260507010011 | 42 | 317 | 0.0 | 2.0 | 0.01 | 0.94 | 0.81 | 96 | 1003.2 |
| 20260507005511 | 42 | 301 | 0.0 | 2.0 | 0.01 | 0.94 | 0.81 | 96 | 1003.1 |
| 20260507005010 | 42 | 301 | 0.0 | 2.0 | 0.01 | 0.94 | 0.81 | 96 | 1003.1 |
| 20260507004513 | 42 | 301 | 0.0 | 2.0 | 0.01 | 0.94 | 0.81 | 96 | 1003.1 |
| 20260507004010 | 42 | 290 | 0.0 | 2.0 | 0.01 | 0.94 | 0.81 | 97 | 1003.0 |
| 20260507003510 | 42 | 298 | 0.0 | 1.0 | 0.01 | 0.94 | 0.81 | 97 | 1003.0 |
| 20260507003009 | 42 | 298 | 0.0 | 1.0 | 0.01 | 0.94 | 0.81 | 96 | 1003.0 |
| 20260507002510 | 42 | 298 | 0.0 | 0.0 | 0.01 | 0.94 | 0.81 | 96 | 1002.9 |
| 20260507002009 | 42 | 298 | 0.0 | 0.0 | 0.01 | 0.94 | 0.81 | 96 | 1002.8 |
| 20260507001509 | 42 | 298 | 0.0 | 2.0 | 0.01 | 0.94 | 0.81 | 96 | 1002.7 |
| 20260507001010 | 42 | 298 | 0.0 | 2.0 | 0.00 | 0.93 | 0.80 | 96 | 1002.6 |
| 20260507000516 | 42 | 298 | 1.0 | 3.0 | 0.01 | 0.93 | 0.80 | 96 | 1002.5 |
| 20260507000020 | 42 | 5 | 0.0 | 3.0 | 0.01 | 0.93 | 0.80 | 96 | 1002.4 |
| 20260506235508 | 42 | 296 | 0.0 | 2.0 | 0.01 | 0.93 | 0.80 | 96 | 1002.2 |
| 20260506235009 | 42 | 296 | 0.0 | 2.0 | 0.01 | 0.93 | 0.80 | 96 | 1002.2 |
| 20260506234508 | 42 | 296 | 0.0 | 2.0 | 0.01 | 0.93 | 0.80 | 96 | 1002.1 |
| 20260506234007 | 42 | 308 | 0.0 | 2.0 | 0.01 | 0.93 | 0.80 | 96 | 1002.1 |
| 20260506233509 | 42 | 308 | 1.0 | 3.0 | 0.01 | 0.93 | 0.80 | 96 | 1002.1 |
| 20260506233008 | 42 | 308 | 1.0 | 3.0 | 0.01 | 0.93 | 0.80 | 96 | 1002.0 |
| 20260506232507 | 42 | 293 | 1.0 | 3.0 | 0.01 | 0.93 | 0.80 | 96 | 1002.0 |
| 20260506232007 | 42 | 310 | 1.0 | 3.0 | 0.01 | 0.93 | 0.80 | 96 | 1001.9 |
| 20260506231507 | 42 | 346 | 0.0 | 2.0 | 0.01 | 0.93 | 0.80 | 96 | 1001.8 |
| 20260506231007 | 42 | 38 | 0.0 | 2.0 | 0.01 | 0.93 | 0.80 | 96 | 1001.7 |
| 20260506230506 | 42 | 29 | 0.0 | 3.0 | 0.00 | 0.92 | 0.79 | 96 | 1001.8 |
| 20260506230006 | 42 | 69 | 0.0 | 3.0 | 0.00 | 0.92 | 0.79 | 96 | 1001.7 |
| 20260506225509 | 43 | 344 | 0.0 | 1.0 | 0.00 | 0.92 | 0.79 | 96 | 1001.9 |
| 20260506225006 | 42 | 326 | 0.0 | 2.0 | 0.00 | 0.92 | 0.79 | 96 | 1002.0 |
| 20260506224506 | 42 | 325 | 0.0 | 2.0 | 0.00 | 0.92 | 0.79 | 96 | 1002.0 |
| 20260506224006 | 42 | 355 | 0.0 | 1.0 | 0.00 | 0.92 | 0.79 | 96 | 1002.0 |
| 20260506223505 | 42 | 355 | 0.0 | 2.0 | 0.00 | 0.92 | 0.79 | 96 | 1001.9 |
| 20260506223006 | 42 | 355 | 0.0 | 2.0 | 0.00 | 0.92 | 0.79 | 96 | 1001.8 |
| 20260506222506 | 42 | 336 | 0.0 | 2.0 | 0.00 | 0.92 | 0.79 | 96 | 1001.8 |
| 20260506222006 | 42 | 331 | 1.0 | 5.0 | 0.00 | 0.92 | 0.79 | 96 | 1001.9 |
| 20260506221507 | 42 | 325 | 0.0 | 5.0 | 0.00 | 0.92 | 0.79 | 96 | 1001.9 |
| 20260506221007 | 42 | 275 | 1.0 | 5.0 | 0.00 | 0.92 | 0.79 | 96 | 1002.1 |
| 20260506220505 | 42 | 306 | 2.0 | 4.0 | 0.00 | 0.92 | 0.79 | 96 | 1002.0 |
| 20260506220007 | 43 | 355 | 1.0 | 5.0 | 0.01 | 0.92 | 0.79 | 96 | 1001.8 |
| 20260506215503 | 43 | 303 | 2.0 | 5.0 | 0.01 | 0.92 | 0.79 | 96 | 1001.9 |
| 20260506215006 | 43 | 323 | 1.0 | 3.0 | 0.01 | 0.92 | 0.79 | 96 | 1001.9 |
| 20260506214503 | 43 | 292 | 0.0 | 4.0 | 0.02 | 0.92 | 0.79 | 96 | 1001.7 |
| 20260506214002 | 43 | 30 | 0.0 | 6.0 | 0.02 | 0.92 | 0.79 | 96 | 1001.7 |
| 20260506213502 | 43 | 290 | 1.0 | 6.0 | 0.02 | 0.92 | 0.79 | 96 | 1001.8 |
| 20260506213003 | 43 | 321 | 1.0 | 3.0 | 0.03 | 0.92 | 0.79 | 96 | 1001.7 |
| 20260506212506 | 43 | 188 | 0.0 | 5.0 | 0.03 | 0.92 | 0.79 | 96 | 1001.5 |
| 20260506212004 | 43 | 351 | 1.0 | 5.0 | 0.04 | 0.92 | 0.79 | 96 | 1001.5 |
| 20260506211502 | 43 | 329 | 0.0 | 3.0 | 0.04 | 0.92 | 0.79 | 96 | 1001.4 |
| 20260506211003 | 43 | 276 | 0.0 | 3.0 | 0.04 | 0.92 | 0.79 | 96 | 1001.2 |
| 20260506210501 | 43 | 336 | 0.0 | 2.0 | 0.05 | 0.98 | 0.79 | 97 | 1001.4 |
| 20260506210002 | 43 | 336 | 0.0 | 2.0 | 0.04 | 0.97 | 0.78 | 96 | 1001.6 |
| 20260506205502 | 43 | 343 | 0.0 | 4.0 | 0.04 | 0.97 | 0.78 | 96 | 1001.7 |
| 20260506205002 | 43 | 336 | 2.0 | 4.0 | 0.04 | 0.97 | 0.78 | 96 | 1001.8 |
| 20260506204503 | 43 | 355 | 1.0 | 4.0 | 0.03 | 0.96 | 0.77 | 96 | 1001.7 |
| 20260506204001 | 43 | 329 | 1.0 | 4.0 | 0.03 | 0.96 | 0.77 | 96 | 1001.7 |
| 20260506203501 | 43 | 349 | 0.0 | 3.0 | 0.03 | 0.96 | 0.77 | 96 | 1001.6 |
| 20260506203001 | 43 | 301 | 0.0 | 3.0 | 0.02 | 0.95 | 0.76 | 96 | 1001.6 |
| 20260506202501 | 43 | 311 | 1.0 | 2.0 | 0.02 | 0.95 | 0.76 | 96 | 1001.6 |
| 20260506202001 | 43 | 300 | 0.0 | 3.0 | 0.02 | 0.94 | 0.75 | 96 | 1001.5 |
| 20260506201500 | 43 | 278 | 1.0 | 3.0 | 0.02 | 0.94 | 0.75 | 96 | 1001.6 |
| 20260506201059 | 43 | 322 | 0.0 | 3.0 | 0.02 | 0.94 | 0.75 | 96 | 1001.5 |
| 20260506200559 | 43 | 298 | 0.0 | 4.0 | 0.01 | 0.93 | 0.74 | 96 | 1001.5 |
| 20260506200146 | 43 | 328 | 2.0 | 4.0 | 0.01 | 0.98 | 0.74 | 96 | 1001.5 |
| 20260506195559 | 43 | 343 | 0.0 | 5.0 | 0.02 | 0.98 | 0.74 | 96 | 1001.5 |
| 20260506195100 | 43 | 350 | 1.0 | 5.0 | 0.02 | 0.98 | 0.74 | 96 | 1001.4 |
| 20260506194700 | 43 | 313 | 1.0 | 6.0 | 0.02 | 0.98 | 0.74 | 96 | 1001.4 |
| 20260506194059 | 43 | 305 | 2.0 | 6.0 | 0.03 | 0.98 | 0.74 | 96 | 1001.2 |
| 20260506193558 | 43 | 18 | 1.0 | 4.0 | 0.03 | 0.98 | 0.74 | 96 | 1001.2 |
| 20260506193057 | 43 | 5 | 1.0 | 4.0 | 0.03 | 0.98 | 0.74 | 96 | 1001.1 |
| 20260506192557 | 43 | 325 | 1.0 | 5.0 | 0.03 | 0.98 | 0.74 | 97 | 1001.2 |
| 20260506192058 | 43 | 321 | 2.0 | 5.0 | 0.02 | 0.97 | 0.73 | 97 | 1001.1 |
| 20260506191600 | 43 | 312 | 2.0 | 4.0 | 0.02 | 0.97 | 0.73 | 96 | 1001.1 |
| 20260506191058 | 43 | 10 | 1.0 | 3.0 | 0.02 | 0.97 | 0.73 | 96 | 1000.9 |
| 20260506190557 | 43 | 39 | 0.0 | 3.0 | 0.03 | 0.97 | 0.73 | 97 | 1001.0 |
| 20260506190056 | 43 | 41 | 1.0 | 3.0 | 0.03 | 1.21 | 0.73 | 97 | 1001.2 |
| 20260506185556 | 42 | 85 | 1.0 | 2.0 | 0.02 | 1.20 | 0.72 | 96 | 1001.2 |
| 20260506185055 | 42 | 202 | 0.0 | 2.0 | 0.02 | 1.20 | 0.72 | 96 | 1001.3 |
| 20260506184555 | 42 | 340 | 0.0 | 2.0 | 0.01 | 1.19 | 0.71 | 96 | 1001.4 |
| 20260506184053 | 42 | 337 | 0.0 | 5.0 | 0.02 | 1.19 | 0.71 | 96 | 1001.5 |
| 20260506183553 | 42 | 244 | 1.0 | 5.0 | 0.02 | 1.19 | 0.71 | 96 | 1001.6 |
| 20260506183053 | 42 | 332 | 2.0 | 4.0 | 0.02 | 1.19 | 0.71 | 96 | 1001.7 |
| 20260506182552 | 42 | 346 | 1.0 | 4.0 | 0.03 | 1.19 | 0.71 | 96 | 1001.5 |
| 20260506182055 | 42 | 48 | 1.0 | 4.0 | 0.04 | 1.19 | 0.71 | 96 | 1001.6 |
| 20260506181552 | 42 | 355 | 1.0 | 4.0 | 0.04 | 1.19 | 0.71 | 96 | 1001.7 |
| 20260506181053 | 42 | 295 | 1.0 | 5.0 | 0.05 | 1.19 | 0.71 | 96 | 1001.7 |
| 20260506180552 | 42 | 342 | 2.0 | 5.0 | 0.04 | 1.18 | 0.70 | 96 | 1001.9 |
| 20260506180100 | 42 | 338 | 2.0 | 4.0 | 0.04 | 1.18 | 0.70 | 96 | 1001.7 |
| 20260506175553 | 42 | 288 | 1.0 | 5.0 | 0.04 | 1.18 | 0.70 | 96 | 1001.8 |
| 20260506175050 | 42 | 5 | 1.0 | 5.0 | 0.05 | 1.18 | 0.70 | 96 | 1001.8 |
| 20260506174550 | 42 | 263 | 2.0 | 5.0 | 0.05 | 1.18 | 0.70 | 96 | 1001.9 |
| 20260506174050 | 42 | 298 | 2.0 | 5.0 | 0.05 | 1.17 | 0.69 | 96 | 1001.9 |
| 20260506173550 | 42 | 321 | 1.0 | 5.0 | 0.05 | 1.17 | 0.69 | 96 | 1001.8 |
| 20260506173106 | 42 | 13 | 2.0 | 5.0 | 0.06 | 1.17 | 0.69 | 96 | 1001.9 |
| 20260506172553 | 42 | 306 | 2.0 | 4.0 | 0.06 | 1.15 | 0.68 | 96 | 1001.9 |
| 20260506172051 | 42 | 330 | 2.0 | 4.0 | 0.05 | 1.14 | 0.67 | 96 | 1001.9 |
| 20260506171558 | 42 | 355 | 1.0 | 4.0 | 0.06 | 1.14 | 0.67 | 96 | 1001.8 |
| 20260506171050 | 42 | 323 | 2.0 | 3.0 | 0.06 | 1.13 | 0.66 | 96 | 1001.8 |
| 20260506170550 | 42 | 245 | 1.0 | 4.0 | 0.06 | 1.13 | 0.66 | 96 | 1001.9 |
| 20260506170049 | 42 | 355 | 1.0 | 4.0 | 0.07 | 1.13 | 0.66 | 96 | 1001.9 |
| 20260506165549 | 42 | 5 | 1.0 | 5.0 | 0.08 | 1.13 | 0.66 | 96 | 1002.0 |
| 20260506165049 | 42 | 344 | 1.0 | 5.0 | 0.08 | 1.12 | 0.65 | 96 | 1002.0 |
| 20260506164549 | 42 | 344 | 1.0 | 3.0 | 0.09 | 1.12 | 0.65 | 96 | 1002.0 |
| 20260506164051 | 42 | 306 | 1.0 | 3.0 | 0.09 | 1.12 | 0.64 | 96 | 1002.1 |
| 20260506163548 | 42 | 355 | 1.0 | 5.0 | 0.10 | 1.12 | 0.64 | 96 | 1002.1 |
| 20260506163050 | 42 | 329 | 1.0 | 5.0 | 0.09 | 1.11 | 0.63 | 96 | 1002.1 |
| 20260506162551 | 42 | 323 | 2.0 | 5.0 | 0.10 | 1.10 | 0.62 | 96 | 1002.1 |
| 20260506162051 | 42 | 360 | 1.0 | 5.0 | 0.11 | 1.10 | 0.62 | 95 | 1002.3 |
| 20260506161554 | 42 | 31 | 2.0 | 3.0 | 0.11 | 1.09 | 0.61 | 96 | 1002.2 |
| 20260506161047 | 42 | 345 | 1.0 | 4.0 | 0.11 | 1.08 | 0.60 | 96 | 1002.1 |
| 20260506160548 | 42 | 43 | 0.0 | 4.0 | 0.12 | 1.08 | 0.60 | 96 | 1002.1 |
| 20260506160050 | 42 | 111 | 0.0 | 3.0 | 0.12 | 1.07 | 0.59 | 96 | 1002.3 |
| 20260506155548 | 42 | 355 | 0.0 | 3.0 | 0.11 | 1.06 | 0.57 | 96 | 1002.3 |
| 20260506155046 | 42 | 332 | 1.0 | 4.0 | 0.11 | 1.05 | 0.56 | 96 | 1002.5 |
| 20260506154546 | 42 | 316 | 1.0 | 4.0 | 0.10 | 1.04 | 0.56 | 96 | 1002.4 |
| 20260506154046 | 42 | 279 | 1.0 | 4.0 | 0.10 | 1.03 | 0.55 | 96 | 1002.3 |
| 20260506153545 | 42 | 13 | 0.0 | 4.0 | 0.09 | 1.02 | 0.54 | 95 | 1002.2 |
| 20260506153045 | 42 | 331 | 2.0 | 4.0 | 0.09 | 1.01 | 0.53 | 96 | 1002.5 |
| 20260506152544 | 42 | 306 | 1.0 | 4.0 | 0.08 | 1.00 | 0.52 | 96 | 1002.4 |
| 20260506152046 | 42 | 9 | 0.0 | 5.0 | 0.08 | 0.99 | 0.51 | 96 | 1002.2 |
| 20260506151543 | 42 | 337 | 2.0 | 5.0 | 0.06 | 0.97 | 0.49 | 96 | 1002.1 |
| 20260506151044 | 42 | 220 | 2.0 | 5.0 | 0.07 | 0.97 | 0.49 | 96 | 1002.0 |
| 20260506150643 | 42 | 36 | 1.0 | 5.0 | 0.06 | 0.96 | 0.48 | 95 | 1002.0 |
| 20260506150042 | 42 | 360 | 1.0 | 6.0 | 0.06 | 0.95 | 0.47 | 96 | 1001.9 |
| 20260506145541 | 42 | 5 | 1.0 | 6.0 | 0.06 | 0.95 | 0.47 | 95 | 1001.9 |
| 20260506145041 | 42 | 339 | 1.0 | 4.0 | 0.05 | 0.94 | 0.46 | 96 | 1002.0 |
| 20260506144541 | 42 | 11 | 1.0 | 4.0 | 0.05 | 0.94 | 0.46 | 95 | 1002.0 |
| 20260506144041 | 42 | 24 | 1.0 | 3.0 | 0.04 | 0.93 | 0.45 | 95 | 1001.9 |
| 20260506143541 | 42 | 22 | 1.0 | 3.0 | 0.04 | 0.93 | 0.45 | 95 | 1002.1 |
| 20260506143041 | 42 | 338 | 0.0 | 3.0 | 0.04 | 0.92 | 0.44 | 95 | 1002.2 |
| 20260506142540 | 42 | 27 | 1.0 | 5.0 | 0.04 | 0.92 | 0.44 | 95 | 1002.3 |
| 20260506142040 | 42 | 40 | 1.0 | 6.0 | 0.03 | 0.91 | 0.43 | 95 | 1002.3 |
| 20260506141540 | 42 | 310 | 2.0 | 6.0 | 0.02 | 0.90 | 0.42 | 95 | 1002.2 |
| 20260506141039 | 42 | 304 | 1.0 | 5.0 | 0.02 | 0.90 | 0.42 | 95 | 1002.2 |
| 20260506140538 | 42 | 306 | 2.0 | 8.0 | 0.01 | 0.89 | 0.41 | 95 | 1002.1 |
| 20260506140043 | 43 | 313 | 2.0 | 8.0 | 0.01 | 0.89 | 0.41 | 95 | 1002.2 |
| 20260506135536 | 43 | 288 | 1.0 | 3.0 | 0.01 | 0.89 | 0.41 | 95 | 1001.9 |
| 20260506135036 | 43 | 13 | 1.0 | 4.0 | 0.02 | 0.89 | 0.41 | 95 | 1001.8 |
| 20260506134607 | 43 | 333 | 1.0 | 4.0 | 0.02 | 0.89 | 0.41 | 95 | 1002.0 |
| 20260506134036 | 43 | 346 | 0.0 | 5.0 | 0.02 | 0.89 | 0.41 | 95 | 1002.1 |
| 20260506133535 | 44 | 355 | 1.0 | 5.0 | 0.03 | 0.89 | 0.41 | 95 | 1002.1 |
| 20260506133035 | 44 | 360 | 1.0 | 2.0 | 0.02 | 0.88 | 0.40 | 96 | 1002.2 |
| 20260506132535 | 44 | 355 | 0.0 | 3.0 | 0.03 | 0.88 | 0.40 | 96 | 1002.2 |
| 20260506132035 | 44 | 360 | 0.0 | 3.0 | 0.03 | 0.88 | 0.40 | 96 | 1002.4 |
| 20260506131541 | 44 | 355 | 0.0 | 3.0 | 0.04 | 0.88 | 0.40 | 96 | 1002.4 |
| 20260506131035 | 43 | 329 | 1.0 | 5.0 | 0.04 | 0.88 | 0.40 | 95 | 1002.5 |
| 20260506130535 | 43 | 350 | 1.0 | 5.0 | 0.05 | 0.88 | 0.40 | 95 | 1002.6 |
| 20260506130036 | 43 | 34 | 2.0 | 4.0 | 0.05 | 0.88 | 0.40 | 95 | 1002.6 |
| 20260506125534 | 43 | 25 | 1.0 | 3.0 | 0.06 | 0.88 | 0.40 | 95 | 1002.4 |
| 20260506125034 | 43 | 333 | 1.0 | 7.0 | 0.05 | 0.87 | 0.39 | 94 | 1002.8 |
| 20260506124533 | 43 | 343 | 2.0 | 7.0 | 0.06 | 0.87 | 0.39 | 94 | 1002.7 |
| 20260506124032 | 43 | 348 | 1.0 | 7.0 | 0.06 | 0.87 | 0.39 | 95 | 1002.5 |
| 20260506123533 | 43 | 347 | 2.0 | 7.0 | 0.06 | 0.86 | 0.38 | 95 | 1002.4 |
| 20260506123033 | 43 | 348 | 0.0 | 4.0 | 0.07 | 0.86 | 0.38 | 95 | 1002.4 |
| 20260506122532 | 43 | 43 | 0.0 | 4.0 | 0.07 | 0.85 | 0.37 | 95 | 1002.6 |
| 20260506122030 | 44 | 338 | 1.0 | 4.0 | 0.08 | 0.85 | 0.37 | 95 | 1003.0 |
| 20260506121531 | 44 | 5 | 1.0 | 4.0 | 0.07 | 0.84 | 0.36 | 95 | 1003.0 |
| 20260506121029 | 44 | 298 | 2.0 | 4.0 | 0.07 | 0.84 | 0.36 | 95 | 1003.2 |
| 20260506120530 | 44 | 48 | 1.0 | 4.0 | 0.06 | 0.83 | 0.35 | 95 | 1002.9 |
| 20260506120028 | 44 | 330 | 1.0 | 4.0 | 0.07 | 0.83 | 0.35 | 95 | 1003.1 |
| 20260506115526 | 45 | 20 | 0.0 | 3.0 | 0.06 | 0.82 | 0.34 | 95 | 1003.2 |
| 20260506115026 | 45 | 181 | 0.0 | 3.0 | 0.06 | 0.82 | 0.34 | 96 | 1003.2 |
| 20260506114533 | 45 | 275 | 0.0 | 1.0 | 0.05 | 0.81 | 0.33 | 96 | 1003.4 |
| 20260506114025 | 45 | 275 | 0.0 | 3.0 | 0.05 | 0.81 | 0.33 | 96 | 1003.4 |
| 20260506113524 | 45 | 275 | 0.0 | 3.0 | 0.04 | 0.80 | 0.32 | 95 | 1003.3 |
| 20260506113029 | 45 | 268 | 2.0 | 3.0 | 0.03 | 0.79 | 0.31 | 95 | 1003.3 |
| 20260506112524 | 45 | 279 | 0.0 | 2.0 | 0.02 | 0.78 | 0.30 | 95 | 1002.9 |
| 20260506112022 | 45 | 279 | 0.0 | 2.0 | 0.02 | 0.77 | 0.28 | 95 | 1002.8 |
| 20260506111522 | 45 | 319 | 0.0 | 3.0 | 0.02 | 0.77 | 0.28 | 96 | 1002.4 |
| 20260506111021 | 45 | 293 | 1.0 | 3.0 | 0.02 | 0.77 | 0.28 | 96 | 1002.3 |
| 20260506110523 | 45 | 321 | 0.0 | 2.0 | 0.02 | 0.77 | 0.28 | 96 | 1002.3 |
| 20260506110021 | 45 | 321 | 0.0 | 2.0 | 0.01 | 0.76 | 0.28 | 96 | 1002.2 |
| 20260506105521 | 45 | 321 | 0.0 | 2.0 | 0.02 | 0.76 | 0.28 | 95 | 1002.3 |
| 20260506105020 | 45 | 321 | 0.0 | 2.0 | 0.03 | 0.76 | 0.28 | 95 | 1002.4 |
| 20260506104520 | 45 | 333 | 1.0 | 3.0 | 0.03 | 0.76 | 0.28 | 95 | 1002.5 |
| 20260506104018 | 45 | 265 | 0.0 | 3.0 | 0.03 | 0.76 | 0.28 | 95 | 1002.4 |
| 20260506103518 | 46 | 313 | 1.0 | 3.0 | 0.04 | 0.76 | 0.28 | 95 | 1002.3 |
| 20260506103024 | 46 | 348 | 1.0 | 3.0 | 0.04 | 0.76 | 0.28 | 95 | 1002.4 |
| 20260506102516 | 46 | 25 | 1.0 | 5.0 | 0.04 | 0.76 | 0.28 | 96 | 1002.3 |
| 20260506102015 | 46 | 355 | 2.0 | 5.0 | 0.03 | 0.75 | 0.27 | 96 | 1002.4 |
| 20260506101514 | 47 | 275 | 1.0 | 4.0 | 0.04 | 0.75 | 0.27 | 96 | 1002.5 |
| 20260506101013 | 47 | 313 | 1.0 | 4.0 | 0.04 | 0.75 | 0.27 | 96 | 1002.6 |
| 20260506100513 | 47 | 281 | 0.0 | 3.0 | 0.04 | 0.75 | 0.27 | 96 | 1002.2 |
| 20260506100021 | 47 | 281 | 1.0 | 3.0 | 0.04 | 0.75 | 0.27 | 96 | 1002.3 |
| 20260506095512 | 47 | 147 | 0.0 | 3.0 | 0.03 | 0.74 | 0.26 | 96 | 1001.6 |
| 20260506095010 | 47 | 210 | 0.0 | 2.0 | 0.02 | 0.73 | 0.25 | 96 | 1003.0 |
| 20260506094515 | 47 | 129 | 0.0 | 2.0 | 0.02 | 0.73 | 0.25 | 96 | 1002.6 |
| 20260506094009 | 47 | 128 | 1.0 | 2.0 | 0.02 | 0.73 | 0.25 | 96 | 1002.5 |
| 20260506093509 | 47 | 128 | 0.0 | 2.0 | 0.01 | 0.72 | 0.24 | 96 | 1002.5 |
| 20260506093008 | 47 | 128 | 0.0 | 2.0 | 0.02 | 0.72 | 0.24 | 96 | 1002.5 |
| 20260506092512 | 47 | 128 | 0.0 | 2.0 | 0.02 | 0.72 | 0.24 | 96 | 1002.7 |
| 20260506092008 | 47 | 128 | 1.0 | 2.0 | 0.02 | 0.72 | 0.24 | 96 | 1002.7 |
| 20260506091510 | 47 | 128 | 0.0 | 1.0 | 0.02 | 0.71 | 0.23 | 96 | 1002.9 |
| 20260506091008 | 47 | 128 | 1.0 | 1.0 | 0.02 | 0.71 | 0.23 | 96 | 1003.1 |
| 20260506090507 | 47 | 128 | 0.0 | 2.0 | 0.02 | 0.71 | 0.23 | 95 | 1002.7 |
| 20260506090007 | 47 | 128 | 0.0 | 2.0 | 0.03 | 0.71 | 0.23 | 95 | 1002.9 |
| 20260506085506 | 47 | 128 | 0.0 | 1.0 | 0.04 | 0.71 | 0.23 | 95 | 1002.9 |
| 20260506085005 | 47 | 128 | 0.0 | 1.0 | 0.06 | 0.71 | 0.23 | 95 | 1002.6 |
| 20260506084505 | 47 | 128 | 0.0 | 1.0 | 0.06 | 0.71 | 0.23 | 95 | 1002.8 |
| 20260506084004 | 47 | 128 | 0.0 | 1.0 | 0.06 | 0.71 | 0.23 | 95 | 1002.8 |
| 20260506083504 | 47 | 128 | 0.0 | 1.0 | 0.06 | 0.71 | 0.23 | 95 | 1002.9 |
| 20260506083005 | 48 | 128 | 0.0 | 2.0 | 0.05 | 0.70 | 0.22 | 95 | 1002.8 |
| 20260506082503 | 48 | 128 | 0.0 | 2.0 | 0.06 | 0.70 | 0.22 | 95 | 1002.8 |
| 20260506082003 | 48 | 128 | 1.0 | 2.0 | 0.06 | 0.70 | 0.22 | 95 | 1003.0 |
| 20260506081503 | 48 | 128 | 0.0 | 1.0 | 0.05 | 0.69 | 0.21 | 95 | 1002.9 |
| 20260506081002 | 48 | 128 | 0.0 | 2.0 | 0.05 | 0.69 | 0.21 | 95 | 1003.0 |
| 20260506080502 | 48 | 126 | 0.0 | 2.0 | 0.06 | 0.69 | 0.21 | 95 | 1002.9 |
| 20260506073057 | 49 | 106 | 0.0 | 2.0 | 0.09 | 0.65 | 0.17 | 96 | 1002.8 |
| 20260506072557 | 49 | 106 | 0.0 | 2.0 | 0.08 | 0.64 | 0.16 | 96 | 1002.9 |
| 20260506072056 | 49 | 106 | 0.0 | 2.0 | 0.08 | 0.64 | 0.16 | 95 | 1002.8 |
| 20260506071557 | 49 | 113 | 0.0 | 2.0 | 0.08 | 0.64 | 0.16 | 95 | 1002.8 |
| 20260506071055 | 49 | 113 | 1.0 | 2.0 | 0.08 | 0.64 | 0.16 | 95 | 1002.5 |
| 20260506070554 | 49 | 113 | 0.0 | 2.0 | 0.07 | 0.63 | 0.15 | 95 | 1002.5 |
| 20260506070116 | 49 | 163 | 1.0 | 2.0 | 0.06 | 0.62 | 0.14 | 95 | 1002.8 |
| 20260506062050 | 50 | 38 | 0.0 | 2.0 | 0.03 | 0.56 | 0.08 | 95 | 1002.7 |
| 20260506061549 | 50 | 39 | 0.0 | 1.0 | 0.04 | 0.56 | 0.08 | 95 | 1003.0 |
| 20260506061050 | 50 | 39 | 0.0 | 1.0 | 0.04 | 0.56 | 0.08 | 95 | 1002.9 |
| 20260506060547 | 50 | 36 | 0.0 | 3.0 | 0.04 | 0.56 | 0.08 | 95 | 1003.0 |
| 20260506051043 | 51 | 325 | 0.0 | 1.0 | 0.04 | 0.52 | 0.04 | 95 | 1003.0 |
| 20260506050643 | 51 | 325 | 0.0 | 2.0 | 0.04 | 0.52 | 0.04 | 95 | 1003.0 |
| 20260506045040 | 51 | 140 | 1.0 | 2.0 | 0.04 | 0.50 | 0.02 | 95 | 1002.7 |
| 20260506044541 | 51 | 140 | 0.0 | 2.0 | 0.05 | 0.50 | 0.02 | 95 | 1002.5 |
| 20260506044040 | 51 | 140 | 1.0 | 2.0 | 0.05 | 0.50 | 0.02 | 94 | 1002.3 |
| 20260506043542 | 51 | 140 | 0.0 | 2.0 | 0.05 | 0.50 | 0.02 | 94 | 1002.5 |
| 20260506043039 | 51 | 188 | 0.0 | 1.0 | 0.05 | 0.50 | 0.02 | 94 | 1001.9 |
| 20260506042538 | 51 | 188 | 0.0 | 1.0 | 0.06 | 0.50 | 0.02 | 94 | 1002.1 |
| 20260506042037 | 51 | 188 | 0.0 | 1.0 | 0.06 | 0.49 | 0.01 | 94 | 1002.3 |
| 20260506041539 | 51 | 188 | 0.0 | 2.0 | 0.06 | 0.48 | 0.00 | 94 | 1002.3 |
| 20260506041036 | 51 | 188 | 0.0 | 2.0 | 0.07 | 0.48 | 0.00 | 94 | 1002.8 |
| 20260506040534 | 52 | 184 | 0.0 | 2.0 | 0.08 | 0.48 | 0.48 | 94 | 1002.7 |
| 20260506040032 | 52 | 165 | 0.0 | 1.0 | 0.08 | 0.47 | 0.47 | 94 | 1002.5 |
| 20260506035532 | 52 | 165 | 0.0 | 1.0 | 0.07 | 0.46 | 0.46 | 94 | 1002.4 |
| 20260506035034 | 52 | 165 | 0.0 | 3.0 | 0.07 | 0.46 | 0.46 | 93 | 1002.5 |
| 20260506034531 | 52 | 165 | 0.0 | 3.0 | 0.06 | 0.45 | 0.45 | 93 | 1002.3 |
| 20260506034030 | 52 | 111 | 0.0 | 2.0 | 0.06 | 0.45 | 0.45 | 93 | 1002.1 |
| 20260506033533 | 52 | 107 | 0.0 | 2.0 | 0.06 | 0.45 | 0.45 | 93 | 1002.2 |
| 20260506033030 | 52 | 107 | 0.0 | 2.0 | 0.06 | 0.45 | 0.45 | 92 | 1002.3 |
| 20260506032530 | 52 | 107 | 1.0 | 2.0 | 0.05 | 0.44 | 0.44 | 90 | 1002.2 |
| 20260506032027 | 53 | 107 | 0.0 | 2.0 | 0.04 | 0.43 | 0.43 | 90 | 1002.2 |
| 20260506031531 | 53 | 40 | 0.0 | 2.0 | 0.03 | 0.42 | 0.42 | 89 | 1002.1 |